Meteo Giornale » Osservazioni meteo Italia » Cagliari-Elmas

ore: 07:50 - Osservazioni Meteo Cagliari-Elmas
Lat. 39° 15' N Lon. 9° 4' E Alt. 4 metri s.l.m.

molto_nuvoloso Europe/Rome

14 °C

Molto Nuvoloso

Temp. 24 Ore

11 °C

20 °C

Nord

3.7 Km/h

Dew point 10 °C

Umidità 76 %

Visibilità  10 Km

Il sole sorge alle ore 06:30

Il sole tramonta alle ore 20:12

Data e Ora Cielo e Fenomeni T °C DP °C Um. % Pres. hPa Vis. km Vento km/h
Oggi h: 07:50 molto_nuvoloso Molto Nuvoloso 14 10 76 1015 10 N 3.7
Oggi h: 07:20 molto_nuvoloso Molto Nuvoloso 13 9 76 1015 10 NE 7.4
Oggi h: 06:50 molto_nuvoloso Molto Nuvoloso 12 9 81 1015 10 E/NE 9.3
Oggi h: 06:20 nuvoloso Nuvoloso 12 8 76 1014 10 E 9.3
Oggi h: 05:50 nuvoloso Nuvoloso 12 8 76 1014 10 E 9.3
Oggi h: 05:20 nuvoloso Nuvoloso 15 11 76 1014 10 E/SE 14.8
Oggi h: 04:50 poco_nuvoloso Poco Nuvoloso 15 11 76 1015 10 E/SE 16.7
Oggi h: 04:20 nuvoloso Nuvoloso 15 12 82 1015 10 E/SE 18.5
Oggi h: 03:50 poco_nuvoloso Poco Nuvoloso 15 12 82 1015 10 SE 16.7
Oggi h: 03:20 sereno Sereno 15 12 82 1015 10 SE 16.7
Oggi h: 02:50 sereno Sereno 15 12 82 1016 10 SE 14.8
Oggi h: 02:20 sereno Sereno 15 12 82 1016 10 SE 14.8
Oggi h: 01:50 sereno Sereno 15 12 82 1016 10 SE 18.5
Oggi h: 01:20 sereno Sereno 15 12 82 1016 10 SE 14.8
Oggi h: 00:50 sereno Sereno 15 11 76 1017 10 SE 14.8
Oggi h: 00:20 sereno Sereno 15 11 76 1017 10 SE 13
Ieri h: 23:50 sereno Sereno 15 10 72 1017 10 SE 13
Ieri h: 23:20 sereno Sereno 15 10 72 1017 10 SE 14.8
Ieri h: 22:50 sereno Sereno 15 10 72 1017 10 S/SE 11.1
Ieri h: 22:20 sereno Sereno 15 11 76 1017 10 S/SE 11.1
Ieri h: 21:50 sereno Sereno 15 10 72 1017 10 S/SE 13
Ieri h: 21:20 sereno Sereno 16 11 72 1017 10 SE 18.5
Ieri h: 20:50 sereno Sereno 16 12 77 1017 10 S/SE 20.3
Ieri h: 20:20 sereno Sereno 16 13 82 1017 10 S/SE 22.2
Ieri h: 19:50 sereno Sereno 16 13 82 1017 10 SE 25.9
Ieri h: 19:20 poco_nuvoloso Poco Nuvoloso 17 13 77 1017 10 S/SE 25.9
Ieri h: 18:50 sereno Sereno 17 13 77 1017 10 S/SE 25.9
Ieri h: 17:50 poco_nuvoloso Poco Nuvoloso 18 13 72 1017 10 S/SE 25.9
Ieri h: 17:20 poco_nuvoloso Poco Nuvoloso 18 13 72 1017 10 S 24
Ieri h: 16:50 poco_nuvoloso Poco Nuvoloso 18 13 72 1017 10 S/SE 24
Ieri h: 16:20 poco_nuvoloso Poco Nuvoloso 19 14 72 1017 10 S 20.3
Ieri h: 15:20 sereno Sereno 19 13 68 1017 10 S 22.2
Ieri h: 14:50 sereno Sereno 19 13 68 1018 10 S 22.2
Ieri h: 14:20 sereno Sereno 19 13 68 1018 10 S 22.2
Ieri h: 13:50 sereno Sereno 19 13 68 1018 10 S 22.2
Ieri h: 13:20 sereno Sereno 20 13 64 1018 10 S 16.7
Ieri h: 12:50 sereno Sereno 20 13 64 1018 10 S/SE 18.5
Ieri h: 12:20 sereno Sereno 19 12 63 1019 10 S 16.7
Ieri h: 11:50 sereno Sereno 18 12 67 1019 10 S 11.1
Ieri h: 11:20 sereno Sereno 18 11 63 1019 10 S 11.1
Ieri h: 10:50 sereno Sereno 18 10 59 1019 10 S 9.3
Ieri h: 10:20 sereno Sereno 17 10 63 1019 10 N 5.5
Ieri h: 09:50 sereno Sereno 15 9 67 1019 10 N 3.7
Ieri h: 09:20 sereno Sereno 12 8 76 1019 10 NO 7.4
Ieri h: 08:50 sereno Sereno 11 7 76 1019 10 NO 9.3